TimeCST,TemperatureF,Dew PointF,Humidity,Sea Level PressureIn,VisibilityMPH,Wind Direction,Wind SpeedMPH,Gust SpeedMPH,PrecipitationIn,Events,Conditions,WindDirDegrees,DateUTC
12:53 AM,44.1,32.0,63,30.38,10.0,NNW,5.8,-,N/A,,Clear,340,2012-11-16 06:53:00
1:53 AM,42.1,32.0,67,30.40,10.0,North,5.8,-,N/A,,Clear,350,2012-11-16 07:53:00
2:53 AM,39.9,32.0,73,30.40,10.0,North,4.6,-,N/A,,Clear,360,2012-11-16 08:53:00
3:53 AM,39.9,32.0,73,30.40,10.0,North,5.8,-,N/A,,Clear,360,2012-11-16 09:53:00
4:53 AM,37.0,30.9,79,30.40,10.0,North,3.5,-,N/A,,Clear,350,2012-11-16 10:53:00
5:53 AM,35.1,30.9,85,30.42,10.0,North,3.5,-,N/A,,Clear,360,2012-11-16 11:53:00
6:53 AM,36.0,30.9,82,30.42,10.0,ENE,5.8,-,N/A,,Clear,60,2012-11-16 12:53:00
7:53 AM,37.9,33.1,83,30.44,8.0,NE,3.5,-,N/A,,Clear,50,2012-11-16 13:53:00
8:53 AM,42.1,34.0,73,30.45,9.0,East,4.6,-,N/A,,Clear,90,2012-11-16 14:53:00
9:53 AM,46.0,36.0,68,30.45,10.0,Calm,Calm,-,N/A,,Clear,0,2012-11-16 15:53:00
10:53 AM,50.0,37.9,63,30.46,9.0,SE,4.6,-,N/A,,Clear,130,2012-11-16 16:53:00
11:53 AM,54.0,37.0,53,30.44,10.0,SSE,6.9,-,N/A,,Clear,160,2012-11-16 17:53:00
12:53 PM,55.9,36.0,47,30.41,10.0,Variable,4.6,-,N/A,,Clear,0,2012-11-16 18:53:00
1:53 PM,57.9,35.1,42,30.39,10.0,East,5.8,-,N/A,,Clear,100,2012-11-16 19:53:00
2:53 PM,57.9,33.1,39,30.37,10.0,SE,6.9,-,N/A,,Clear,130,2012-11-16 20:53:00
3:53 PM,57.0,34.0,42,30.37,10.0,SE,5.8,-,N/A,,Clear,140,2012-11-16 21:53:00
4:53 PM,54.0,35.1,49,30.37,10.0,SE,4.6,-,N/A,,Clear,130,2012-11-16 22:53:00
5:53 PM,51.1,35.1,54,30.37,10.0,SE,3.5,-,N/A,,Clear,130,2012-11-16 23:53:00
6:53 PM,45.0,35.1,68,30.38,10.0,Calm,Calm,-,N/A,,Clear,0,2012-11-17 00:53:00
7:53 PM,48.0,35.1,61,30.38,10.0,ESE,5.8,-,N/A,,Clear,120,2012-11-17 01:53:00
8:53 PM,44.1,34.0,68,30.38,10.0,Calm,Calm,-,N/A,,Clear,0,2012-11-17 02:53:00
9:53 PM,43.0,34.0,71,30.38,10.0,Calm,Calm,-,N/A,,Clear,0,2012-11-17 03:53:00
10:53 PM,43.0,34.0,71,30.38,10.0,SE,5.8,-,N/A,,Clear,140,2012-11-17 04:53:00
11:53 PM,41.0,34.0,76,30.38,10.0,SSE,5.8,-,N/A,,Clear,150,2012-11-17 05:53:00